Voltar ao catálogo

ANDESITE

AtivoCiênciaSSO
NORAD 45726·PAYLOAD·🇺🇸 United States

Lançado Jun 13, 2020 de Rocket Lab Launch Complex 1

Loading…

Próximas Passagens (próximas 24 horas)

TLE

AtualizadoSource: Space-Track

Época: Sep 14, 2026, 00:14 UTC

1 45726U 20037D   26257.00981257  .00002272  00000-0  15997-3 0  9997
2 45726  97.7833  90.7766 0007856 222.5313 137.5306 15.06063850339039

Acompanhe ANDESITE em tempo real com AllMySat

Download on the App Store